Year,Month,Day,Hour,Minute,Value (Times are PST for insolation in W/m^2)
2011,06,30,00,00,0.00
2011,06,30,00,01,0.00
2011,06,30,00,02,0.00
2011,06,30,00,03,0.00
2011,06,30,00,04,0.00
2011,06,30,00,05,0.00
2011,06,30,00,06,0.00
2011,06,30,00,07,0.00
2011,06,30,00,08,0.00
2011,06,30,00,09,0.00
2011,06,30,00,10,0.00
2011,06,30,00,11,0.00
2011,06,30,00,12,0.00
2011,06,30,00,13,0.00
2011,06,30,00,14,0.00
2011,06,30,00,15,0.00
2011,06,30,00,16,0.00
2011,06,30,00,17,0.00
2011,06,30,00,18,0.00
2011,06,30,00,19,0.00
2011,06,30,00,20,0.00
2011,06,30,00,21,0.00
2011,06,30,00,22,0.00
2011,06,30,00,23,0.00
2011,06,30,00,24,0.00
2011,06,30,00,25,0.00
2011,06,30,00,26,0.00
2011,06,30,00,27,0.00
2011,06,30,00,28,0.00
2011,06,30,00,29,0.00
2011,06,30,00,30,0.00
2011,06,30,00,31,0.00
2011,06,30,00,32,0.00
2011,06,30,00,33,0.00
2011,06,30,00,34,0.00
2011,06,30,00,35,0.00
2011,06,30,00,36,0.00
2011,06,30,00,37,0.00
2011,06,30,00,38,0.00
2011,06,30,00,39,0.00
2011,06,30,00,40,0.00
2011,06,30,00,41,0.00
2011,06,30,00,42,0.00
2011,06,30,00,43,0.00
2011,06,30,00,44,0.00
2011,06,30,00,45,0.00
2011,06,30,00,46,0.00
2011,06,30,00,47,0.00
2011,06,30,00,48,0.00
2011,06,30,00,49,0.00
2011,06,30,00,50,0.00
2011,06,30,00,51,0.00
2011,06,30,00,52,0.00
2011,06,30,00,53,0.00
2011,06,30,00,54,0.00
2011,06,30,00,55,0.00
2011,06,30,00,56,0.00
2011,06,30,00,57,0.00
2011,06,30,00,58,0.00
2011,06,30,00,59,0.00
2011,06,30,01,00,0.00
2011,06,30,01,01,0.00
2011,06,30,01,02,0.00
2011,06,30,01,03,0.00
2011,06,30,01,04,0.00
2011,06,30,01,05,0.00
2011,06,30,01,06,0.00
2011,06,30,01,07,0.00
2011,06,30,01,08,0.00
2011,06,30,01,09,0.00
2011,06,30,01,10,0.00
2011,06,30,01,11,0.00
2011,06,30,01,12,0.00
2011,06,30,01,13,0.00
2011,06,30,01,14,0.00
2011,06,30,01,15,0.00
2011,06,30,01,16,0.00
2011,06,30,01,17,0.00
2011,06,30,01,18,0.00
2011,06,30,01,19,0.00
2011,06,30,01,20,0.00
2011,06,30,01,21,0.00
2011,06,30,01,22,0.00
2011,06,30,01,23,0.00
2011,06,30,01,24,0.00
2011,06,30,01,25,0.00
2011,06,30,01,26,0.00
2011,06,30,01,27,0.00
2011,06,30,01,28,0.00
2011,06,30,01,29,0.00
2011,06,30,01,30,0.00
2011,06,30,01,31,0.00
2011,06,30,01,32,0.00
2011,06,30,01,33,0.00
2011,06,30,01,34,0.00
2011,06,30,01,35,0.00
2011,06,30,01,36,0.00
2011,06,30,01,37,0.00
2011,06,30,01,38,0.00
2011,06,30,01,39,0.00
2011,06,30,01,40,0.00
2011,06,30,01,41,0.00
2011,06,30,01,42,0.00
2011,06,30,01,43,0.00
2011,06,30,01,44,0.00
2011,06,30,01,45,0.00
2011,06,30,01,46,0.00
2011,06,30,01,47,0.00
2011,06,30,01,48,0.00
2011,06,30,01,49,0.00
2011,06,30,01,50,0.00
2011,06,30,01,51,0.00
2011,06,30,01,52,0.00
2011,06,30,01,53,0.00
2011,06,30,01,54,0.00
2011,06,30,01,55,0.00
2011,06,30,01,56,0.00
2011,06,30,01,57,0.00
2011,06,30,01,58,0.00
2011,06,30,01,59,0.00
2011,06,30,02,00,0.00
2011,06,30,02,01,0.00
2011,06,30,02,02,0.00
2011,06,30,02,03,0.00
2011,06,30,02,04,0.00
2011,06,30,02,05,0.00
2011,06,30,02,06,0.00
2011,06,30,02,07,0.00
2011,06,30,02,08,0.00
2011,06,30,02,09,0.00
2011,06,30,02,10,0.00
2011,06,30,02,11,0.00
2011,06,30,02,12,0.00
2011,06,30,02,13,0.00
2011,06,30,02,14,0.00
2011,06,30,02,15,0.00
2011,06,30,02,16,0.00
2011,06,30,02,17,0.00
2011,06,30,02,18,0.00
2011,06,30,02,19,0.00
2011,06,30,02,20,0.00
2011,06,30,02,21,0.00
2011,06,30,02,22,0.00
2011,06,30,02,23,0.00
2011,06,30,02,24,0.00
2011,06,30,02,25,0.00
2011,06,30,02,26,0.00
2011,06,30,02,27,0.00
2011,06,30,02,28,0.00
2011,06,30,02,29,0.00
2011,06,30,02,30,0.00
2011,06,30,02,31,0.00
2011,06,30,02,32,0.00
2011,06,30,02,33,0.00
2011,06,30,02,34,0.00
2011,06,30,02,35,0.00
2011,06,30,02,36,0.00
2011,06,30,02,37,0.00
2011,06,30,02,38,0.00
2011,06,30,02,39,0.00
2011,06,30,02,40,0.00
2011,06,30,02,41,0.00
2011,06,30,02,42,0.00
2011,06,30,02,43,0.00
2011,06,30,02,44,0.00
2011,06,30,02,45,0.00
2011,06,30,02,46,0.00
2011,06,30,02,47,0.00
2011,06,30,02,48,0.00
2011,06,30,02,49,0.00
2011,06,30,02,50,0.00
2011,06,30,02,51,0.00
2011,06,30,02,52,0.00
2011,06,30,02,53,0.00
2011,06,30,02,54,0.00
2011,06,30,02,55,0.00
2011,06,30,02,56,0.00
2011,06,30,02,57,0.00
2011,06,30,02,58,0.00
2011,06,30,02,59,0.00
2011,06,30,03,00,0.00
2011,06,30,03,01,0.00
2011,06,30,03,02,0.00
2011,06,30,03,03,0.00
2011,06,30,03,04,0.00
2011,06,30,03,05,0.00
2011,06,30,03,06,0.00
2011,06,30,03,07,0.00
2011,06,30,03,08,0.00
2011,06,30,03,09,0.00
2011,06,30,03,10,0.00
2011,06,30,03,11,0.00
2011,06,30,03,12,0.00
2011,06,30,03,13,0.00
2011,06,30,03,14,0.00
2011,06,30,03,15,0.00
2011,06,30,03,16,0.00
2011,06,30,03,17,0.00
2011,06,30,03,18,0.00
2011,06,30,03,19,0.00
2011,06,30,03,20,0.00
2011,06,30,03,21,0.00
2011,06,30,03,22,0.00
2011,06,30,03,23,0.00
2011,06,30,03,24,0.00
2011,06,30,03,25,0.00
2011,06,30,03,26,0.00
2011,06,30,03,27,0.00
2011,06,30,03,28,0.00
2011,06,30,03,29,0.00
2011,06,30,03,30,0.00
2011,06,30,03,31,0.00
2011,06,30,03,32,0.00
2011,06,30,03,33,0.00
2011,06,30,03,34,0.00
2011,06,30,03,35,0.00
2011,06,30,03,36,0.00
2011,06,30,03,37,0.00
2011,06,30,03,38,0.00
2011,06,30,03,39,0.00
2011,06,30,03,40,0.00
2011,06,30,03,41,0.00
2011,06,30,03,42,0.00
2011,06,30,03,43,0.00
2011,06,30,03,44,0.00
2011,06,30,03,45,0.00
2011,06,30,03,46,0.00
2011,06,30,03,47,0.00
2011,06,30,03,48,0.00
2011,06,30,03,49,0.00
2011,06,30,03,50,0.00
2011,06,30,03,51,0.00
2011,06,30,03,52,0.00
2011,06,30,03,53,0.00
2011,06,30,03,54,0.00
2011,06,30,03,55,0.00
2011,06,30,03,56,0.00
2011,06,30,03,57,0.00
2011,06,30,03,58,0.00
2011,06,30,03,59,0.00
2011,06,30,04,00,0.00
2011,06,30,04,01,0.00
2011,06,30,04,02,0.00
2011,06,30,04,03,0.00
2011,06,30,04,04,0.00
2011,06,30,04,05,0.00
2011,06,30,04,06,0.00
2011,06,30,04,07,0.00
2011,06,30,04,08,0.00
2011,06,30,04,09,0.00
2011,06,30,04,10,0.00
2011,06,30,04,11,0.00
2011,06,30,04,12,0.00
2011,06,30,04,13,0.00
2011,06,30,04,14,0.00
2011,06,30,04,15,0.00
2011,06,30,04,16,0.00
2011,06,30,04,17,0.00
2011,06,30,04,18,0.00
2011,06,30,04,19,0.00
2011,06,30,04,20,0.00
2011,06,30,04,21,0.00
2011,06,30,04,22,0.00
2011,06,30,04,23,0.00
2011,06,30,04,24,0.00
2011,06,30,04,25,0.00
2011,06,30,04,26,0.00
2011,06,30,04,27,0.00
2011,06,30,04,28,0.00
2011,06,30,04,29,0.00
2011,06,30,04,30,0.00
2011,06,30,04,31,0.00
2011,06,30,04,32,0.00
2011,06,30,04,33,0.00
2011,06,30,04,34,0.00
2011,06,30,04,35,0.00
2011,06,30,04,36,0.00
2011,06,30,04,37,0.00
2011,06,30,04,38,0.00
2011,06,30,04,39,0.00
2011,06,30,04,40,0.00
2011,06,30,04,41,0.00
2011,06,30,04,42,0.00
2011,06,30,04,43,0.00
2011,06,30,04,44,0.00
2011,06,30,04,45,0.00
2011,06,30,04,46,0.00
2011,06,30,04,47,0.00
2011,06,30,04,48,0.00
2011,06,30,04,49,0.00
2011,06,30,04,50,0.00
2011,06,30,04,51,0.00
2011,06,30,04,52,0.00
2011,06,30,04,53,0.00
2011,06,30,04,54,0.00
2011,06,30,04,55,0.00
2011,06,30,04,56,0.00
2011,06,30,04,57,0.00
2011,06,30,04,58,0.00
2011,06,30,04,59,0.00
2011,06,30,05,00,0.00
2011,06,30,05,01,0.00
2011,06,30,05,02,0.00
2011,06,30,05,03,0.00
2011,06,30,05,04,0.00
2011,06,30,05,05,0.00
2011,06,30,05,06,0.00
2011,06,30,05,07,0.00
2011,06,30,05,08,0.00
2011,06,30,05,09,0.00
2011,06,30,05,10,0.00
2011,06,30,05,11,0.00
2011,06,30,05,12,0.00
2011,06,30,05,13,0.00
2011,06,30,05,14,0.00
2011,06,30,05,15,0.00
2011,06,30,05,16,0.00
2011,06,30,05,17,0.00
2011,06,30,05,18,0.00
2011,06,30,05,19,0.00
2011,06,30,05,20,0.50
2011,06,30,05,21,5.00
2011,06,30,05,22,5.00
2011,06,30,05,23,5.00
2011,06,30,05,24,5.00
2011,06,30,05,25,6.70
2011,06,30,05,26,7.00
2011,06,30,05,27,7.00
2011,06,30,05,28,7.00
2011,06,30,05,29,7.00
2011,06,30,05,30,7.00
2011,06,30,05,31,7.00
2011,06,30,05,32,7.00
2011,06,30,05,33,7.50
2011,06,30,05,34,9.00
2011,06,30,05,35,9.00
2011,06,30,05,36,9.00
2011,06,30,05,37,9.00
2011,06,30,05,38,11.00
2011,06,30,05,39,11.00
2011,06,30,05,40,11.40
2011,06,30,05,41,12.00
2011,06,30,05,42,12.00
2011,06,30,05,43,12.00
2011,06,30,05,44,12.40
2011,06,30,05,45,14.70
2011,06,30,05,46,16.00
2011,06,30,05,47,17.20
2011,06,30,05,48,18.00
2011,06,30,05,49,18.00
2011,06,30,05,50,19.00
2011,06,30,05,51,19.00
2011,06,30,05,52,20.00
2011,06,30,05,53,21.00
2011,06,30,05,54,21.00
2011,06,30,05,55,22.80
2011,06,30,05,56,23.40
2011,06,30,05,57,25.00
2011,06,30,05,58,25.00
2011,06,30,05,59,25.00
2011,06,30,06,00,25.80
2011,06,30,06,01,26.00
2011,06,30,06,02,27.00
2011,06,30,06,03,30.80
2011,06,30,06,04,32.50
2011,06,30,06,05,33.00
2011,06,30,06,06,34.60
2011,06,30,06,07,40.10
2011,06,30,06,08,53.90
2011,06,30,06,09,67.90
2011,06,30,06,10,61.90
2011,06,30,06,11,56.00
2011,06,30,06,12,54.30
2011,06,30,06,13,52.50
2011,06,30,06,14,48.40
2011,06,30,06,15,45.60
2011,06,30,06,16,44.00
2011,06,30,06,17,45.50
2011,06,30,06,18,73.30
2011,06,30,06,19,104.10
2011,06,30,06,20,91.00
2011,06,30,06,21,46.50
2011,06,30,06,22,46.00
2011,06,30,06,23,46.00
2011,06,30,06,24,46.00
2011,06,30,06,25,45.60
2011,06,30,06,26,44.70
2011,06,30,06,27,46.50
2011,06,30,06,28,46.40
2011,06,30,06,29,46.00
2011,06,30,06,30,45.90
2011,06,30,06,31,43.60
2011,06,30,06,32,42.00
2011,06,30,06,33,42.00
2011,06,30,06,34,40.60
2011,06,30,06,35,40.00
2011,06,30,06,36,39.90
2011,06,30,06,37,39.00
2011,06,30,06,38,38.30
2011,06,30,06,39,38.00
2011,06,30,06,40,39.00
2011,06,30,06,41,39.00
2011,06,30,06,42,39.10
2011,06,30,06,43,40.50
2011,06,30,06,44,42.00
2011,06,30,06,45,43.00
2011,06,30,06,46,45.40
2011,06,30,06,47,46.90
2011,06,30,06,48,48.70
2011,06,30,06,49,47.00
2011,06,30,06,50,47.00
2011,06,30,06,51,47.00
2011,06,30,06,52,47.00
2011,06,30,06,53,48.70
2011,06,30,06,54,54.00
2011,06,30,06,55,61.70
2011,06,30,06,56,65.70
2011,06,30,06,57,74.30
2011,06,30,06,58,133.20
2011,06,30,06,59,140.40
2011,06,30,07,00,127.50
2011,06,30,07,01,149.60
2011,06,30,07,02,149.60
2011,06,30,07,03,177.80
2011,06,30,07,04,212.00
2011,06,30,07,05,220.70
2011,06,30,07,06,220.90
2011,06,30,07,07,214.70
2011,06,30,07,08,216.00
2011,06,30,07,09,229.00
2011,06,30,07,10,229.00
2011,06,30,07,11,230.00
2011,06,30,07,12,232.40
2011,06,30,07,13,234.70
2011,06,30,07,14,236.50
2011,06,30,07,15,238.30
2011,06,30,07,16,242.20
2011,06,30,07,17,245.90
2011,06,30,07,18,248.70
2011,06,30,07,19,252.50
2011,06,30,07,20,256.10
2011,06,30,07,21,258.90
2011,06,30,07,22,261.60
2011,06,30,07,23,265.20
2011,06,30,07,24,269.80
2011,06,30,07,25,273.50
2011,06,30,07,26,277.00
2011,06,30,07,27,278.70
2011,06,30,07,28,282.30
2011,06,30,07,29,287.40
2011,06,30,07,30,290.60
2011,06,30,07,31,292.80
2011,06,30,07,32,294.60
2011,06,30,07,33,296.40
2011,06,30,07,34,300.30
2011,06,30,07,35,304.60
2011,06,30,07,36,308.20
2011,06,30,07,37,309.90
2011,06,30,07,38,312.10
2011,06,30,07,39,314.40
2011,06,30,07,40,315.90
2011,06,30,07,41,320.90
2011,06,30,07,42,326.10
2011,06,30,07,43,329.00
2011,06,30,07,44,332.10
2011,06,30,07,45,334.00
2011,06,30,07,46,338.70
2011,06,30,07,47,343.00
2011,06,30,07,48,344.10
2011,06,30,07,49,348.00
2011,06,30,07,50,355.30
2011,06,30,07,51,362.80
2011,06,30,07,52,366.00
2011,06,30,07,53,371.70
2011,06,30,07,54,375.50
2011,06,30,07,55,380.50
2011,06,30,07,56,385.50
2011,06,30,07,57,392.50
2011,06,30,07,58,404.40
2011,06,30,07,59,415.50
2011,06,30,08,00,427.80
2011,06,30,08,01,439.70
2011,06,30,08,02,449.90
2011,06,30,08,03,452.00
2011,06,30,08,04,431.50
2011,06,30,08,05,443.40
2011,06,30,08,06,431.40
2011,06,30,08,07,432.60
2011,06,30,08,08,443.60
2011,06,30,08,09,443.00
2011,06,30,08,10,265.10
2011,06,30,08,11,298.40
2011,06,30,08,12,439.80
2011,06,30,08,13,389.20
2011,06,30,08,14,346.00
2011,06,30,08,15,175.90
2011,06,30,08,16,189.50
2011,06,30,08,17,446.60
2011,06,30,08,18,452.00
2011,06,30,08,19,455.10
2011,06,30,08,20,454.70
2011,06,30,08,21,458.50
2011,06,30,08,22,462.70
2011,06,30,08,23,466.90
2011,06,30,08,24,467.60
2011,06,30,08,25,466.00
2011,06,30,08,26,472.50
2011,06,30,08,27,484.20
2011,06,30,08,28,499.40
2011,06,30,08,29,512.10
2011,06,30,08,30,508.80
2011,06,30,08,31,513.00
2011,06,30,08,32,525.10
2011,06,30,08,33,526.90
2011,06,30,08,34,525.60
2011,06,30,08,35,524.70
2011,06,30,08,36,526.00
2011,06,30,08,37,526.00
2011,06,30,08,38,526.00
2011,06,30,08,39,526.10
2011,06,30,08,40,528.30
2011,06,30,08,41,535.20
2011,06,30,08,42,545.20
2011,06,30,08,43,539.20
2011,06,30,08,44,533.00
2011,06,30,08,45,533.00
2011,06,30,08,46,533.00
2011,06,30,08,47,518.30
2011,06,30,08,48,549.90
2011,06,30,08,49,601.70
2011,06,30,08,50,605.00
2011,06,30,08,51,507.60
2011,06,30,08,52,456.90
2011,06,30,08,53,337.50
2011,06,30,08,54,339.00
2011,06,30,08,55,288.10
2011,06,30,08,56,269.00
2011,06,30,08,57,269.00
2011,06,30,08,58,283.60
2011,06,30,08,59,312.30
2011,06,30,09,00,309.00
2011,06,30,09,01,309.00
2011,06,30,09,02,556.70
2011,06,30,09,03,592.80
2011,06,30,09,04,585.30
2011,06,30,09,05,582.90
2011,06,30,09,06,580.60
2011,06,30,09,07,579.50
2011,06,30,09,08,580.10
2011,06,30,09,09,582.50
2011,06,30,09,10,588.30
2011,06,30,09,11,594.00
2011,06,30,09,12,594.00
2011,06,30,09,13,607.90
2011,06,30,09,14,612.00
2011,06,30,09,15,612.20
2011,06,30,09,16,614.50
2011,06,30,09,17,620.80
2011,06,30,09,18,627.30
2011,06,30,09,19,634.70
2011,06,30,09,20,643.00
2011,06,30,09,21,652.80
2011,06,30,09,22,662.80
2011,06,30,09,23,664.70
2011,06,30,09,24,646.00
2011,06,30,09,25,673.50
2011,06,30,09,26,632.00
2011,06,30,09,27,536.00
2011,06,30,09,28,461.50
2011,06,30,09,29,411.00
2011,06,30,09,30,614.90
2011,06,30,09,31,738.90
2011,06,30,09,32,812.10
2011,06,30,09,33,826.00
2011,06,30,09,34,664.70
2011,06,30,09,35,455.00
2011,06,30,09,36,455.00
2011,06,30,09,37,455.00
2011,06,30,09,38,455.00
2011,06,30,09,39,482.70
2011,06,30,09,40,509.30
2011,06,30,09,41,466.70
2011,06,30,09,42,543.70
2011,06,30,09,43,556.90
2011,06,30,09,44,504.00
2011,06,30,09,45,504.00
2011,06,30,09,46,504.00
2011,06,30,09,47,708.90
2011,06,30,09,48,815.20
2011,06,30,09,49,799.20
2011,06,30,09,50,835.10
2011,06,30,09,51,828.20
2011,06,30,09,52,841.60
2011,06,30,09,53,855.40
2011,06,30,09,54,841.80
2011,06,30,09,55,873.50
2011,06,30,09,56,850.00
2011,06,30,09,57,861.00
2011,06,30,09,58,861.00
2011,06,30,09,59,861.00
2011,06,30,10,00,755.10
2011,06,30,10,01,723.90
2011,06,30,10,02,790.20
2011,06,30,10,03,863.00
2011,06,30,10,04,677.00
2011,06,30,10,05,547.20
2011,06,30,10,06,559.00
2011,06,30,10,07,523.70
2011,06,30,10,08,550.80
2011,06,30,10,09,574.30
2011,06,30,10,10,609.30
2011,06,30,10,11,671.20
2011,06,30,10,12,684.00
2011,06,30,10,13,651.60
2011,06,30,10,14,685.70
2011,06,30,10,15,775.00
2011,06,30,10,16,775.00
2011,06,30,10,17,796.40
2011,06,30,10,18,750.20
2011,06,30,10,19,792.70
2011,06,30,10,20,784.90
2011,06,30,10,21,791.90
2011,06,30,10,22,813.90
2011,06,30,10,23,825.00
2011,06,30,10,24,796.70
2011,06,30,10,25,816.80
2011,06,30,10,26,808.00
2011,06,30,10,27,793.10
2011,06,30,10,28,760.20
2011,06,30,10,29,759.50
2011,06,30,10,30,724.00
2011,06,30,10,31,753.50
2011,06,30,10,32,773.00
2011,06,30,10,33,778.00
2011,06,30,10,34,784.20
2011,06,30,10,35,778.10
2011,06,30,10,36,785.20
2011,06,30,10,37,781.70
2011,06,30,10,38,761.70
2011,06,30,10,39,754.00
2011,06,30,10,40,745.00
2011,06,30,10,41,760.20
2011,06,30,10,42,753.00
2011,06,30,10,43,755.10
2011,06,30,10,44,748.20
2011,06,30,10,45,739.40
2011,06,30,10,46,739.00
2011,06,30,10,47,747.40
2011,06,30,10,48,757.60
2011,06,30,10,49,770.80
2011,06,30,10,50,765.40
2011,06,30,10,51,756.70
2011,06,30,10,52,789.40
2011,06,30,10,53,801.60
2011,06,30,10,54,806.30
2011,06,30,10,55,819.90
2011,06,30,10,56,834.70
2011,06,30,10,57,837.30
2011,06,30,10,58,833.50
2011,06,30,10,59,829.00
2011,06,30,11,00,816.70
2011,06,30,11,01,814.70
2011,06,30,11,02,844.90
2011,06,30,11,03,854.30
2011,06,30,11,04,854.40
2011,06,30,11,05,843.40
2011,06,30,11,06,856.80
2011,06,30,11,07,876.10
2011,06,30,11,08,850.40
2011,06,30,11,09,866.80
2011,06,30,11,10,921.20
2011,06,30,11,11,935.80
2011,06,30,11,12,978.00
2011,06,30,11,13,997.00
2011,06,30,11,14,997.00
2011,06,30,11,15,997.00
2011,06,30,11,16,997.00
2011,06,30,11,17,997.00
2011,06,30,11,18,1035.60
2011,06,30,11,19,1167.00
2011,06,30,11,20,1167.00
2011,06,30,11,21,1167.00
2011,06,30,11,22,1167.00
2011,06,30,11,23,1167.00
2011,06,30,11,24,1167.00
2011,06,30,11,25,978.00
2011,06,30,11,26,671.00
2011,06,30,11,27,730.80
2011,06,30,11,28,765.00
2011,06,30,11,29,561.20
2011,06,30,11,30,613.30
2011,06,30,11,31,672.60
2011,06,30,11,32,656.30
2011,06,30,11,33,622.30
2011,06,30,11,34,565.50
2011,06,30,11,35,584.30
2011,06,30,11,36,621.00
2011,06,30,11,37,621.00
2011,06,30,11,38,663.40
2011,06,30,11,39,696.00
2011,06,30,11,40,489.00
2011,06,30,11,41,425.60
2011,06,30,11,42,469.60
2011,06,30,11,43,433.60
2011,06,30,11,44,415.10
2011,06,30,11,45,395.80
2011,06,30,11,46,390.30
2011,06,30,11,47,375.00
2011,06,30,11,48,409.00
2011,06,30,11,49,463.30
2011,06,30,11,50,490.00
2011,06,30,11,51,580.00
2011,06,30,11,52,604.50
2011,06,30,11,53,505.50
2011,06,30,11,54,566.00
2011,06,30,11,55,566.00
2011,06,30,11,56,576.70
2011,06,30,11,57,567.80
2011,06,30,11,58,546.10
2011,06,30,11,59,592.20
2011,06,30,12,00,623.90
2011,06,30,12,01,568.00
2011,06,30,12,02,474.10
2011,06,30,12,03,390.50
2011,06,30,12,04,373.90
2011,06,30,12,05,407.60
2011,06,30,12,06,437.30
2011,06,30,12,07,394.60
2011,06,30,12,08,365.30
2011,06,30,12,09,340.40
2011,06,30,12,10,322.90
2011,06,30,12,11,314.50
2011,06,30,12,12,314.10
2011,06,30,12,13,321.10
2011,06,30,12,14,329.70
2011,06,30,12,15,338.00
2011,06,30,12,16,343.00
2011,06,30,12,17,343.80
2011,06,30,12,18,346.80
2011,06,30,12,19,346.40
2011,06,30,12,20,341.00
2011,06,30,12,21,338.10
2011,06,30,12,22,339.00
2011,06,30,12,23,350.40
2011,06,30,12,24,372.50
2011,06,30,12,25,397.60
2011,06,30,12,26,413.00
2011,06,30,12,27,404.60
2011,06,30,12,28,386.20
2011,06,30,12,29,381.50
2011,06,30,12,30,385.00
2011,06,30,12,31,391.50
2011,06,30,12,32,392.50
2011,06,30,12,33,376.40
2011,06,30,12,34,348.80
2011,06,30,12,35,330.00
2011,06,30,12,36,343.80
2011,06,30,12,37,378.70
2011,06,30,12,38,403.00
2011,06,30,12,39,409.10
2011,06,30,12,40,395.10
2011,06,30,12,41,389.20
2011,06,30,12,42,394.00
2011,06,30,12,43,387.20
2011,06,30,12,44,366.80
2011,06,30,12,45,335.20
2011,06,30,12,46,315.00
2011,06,30,12,47,317.00
2011,06,30,12,48,324.50
2011,06,30,12,49,333.90
2011,06,30,12,50,327.10
2011,06,30,12,51,316.30
2011,06,30,12,52,316.40
2011,06,30,12,53,323.40
2011,06,30,12,54,325.60
2011,06,30,12,55,316.20
2011,06,30,12,56,304.10
2011,06,30,12,57,289.80
2011,06,30,12,58,272.70
2011,06,30,12,59,260.50
2011,06,30,13,00,259.10
2011,06,30,13,01,261.40
2011,06,30,13,02,262.00
2011,06,30,13,03,265.60
2011,06,30,13,04,270.40
2011,06,30,13,05,274.00
2011,06,30,13,06,272.10
2011,06,30,13,07,266.20
2011,06,30,13,08,258.80
2011,06,30,13,09,259.80
2011,06,30,13,10,278.00
2011,06,30,13,11,304.00
2011,06,30,13,12,322.30
2011,06,30,13,13,329.30
2011,06,30,13,14,335.50
2011,06,30,13,15,348.80
2011,06,30,13,16,415.70
2011,06,30,13,17,456.00
2011,06,30,13,18,512.00
2011,06,30,13,19,596.60
2011,06,30,13,20,605.10
2011,06,30,13,21,560.60
2011,06,30,13,22,519.30
2011,06,30,13,23,495.50
2011,06,30,13,24,501.00
2011,06,30,13,25,501.00
2011,06,30,13,26,446.10
2011,06,30,13,27,421.10
2011,06,30,13,28,430.70
2011,06,30,13,29,448.40
2011,06,30,13,30,499.30
2011,06,30,13,31,591.00
2011,06,30,13,32,606.80
2011,06,30,13,33,570.00
2011,06,30,13,34,530.20
2011,06,30,13,35,497.00
2011,06,30,13,36,448.40
2011,06,30,13,37,414.90
2011,06,30,13,38,378.90
2011,06,30,13,39,359.70
2011,06,30,13,40,330.60
2011,06,30,13,41,295.40
2011,06,30,13,42,280.40
2011,06,30,13,43,291.90
2011,06,30,13,44,300.50
2011,06,30,13,45,296.10
2011,06,30,13,46,293.10
2011,06,30,13,47,300.30
2011,06,30,13,48,319.80
2011,06,30,13,49,334.60
2011,06,30,13,50,337.70
2011,06,30,13,51,336.60
2011,06,30,13,52,335.30
2011,06,30,13,53,330.10
2011,06,30,13,54,329.00
2011,06,30,13,55,353.50
2011,06,30,13,56,413.00
2011,06,30,13,57,454.10
2011,06,30,13,58,527.40
2011,06,30,13,59,527.70
2011,06,30,14,00,494.50
2011,06,30,14,01,452.10
2011,06,30,14,02,427.90
2011,06,30,14,03,422.00
2011,06,30,14,04,408.50
2011,06,30,14,05,385.40
2011,06,30,14,06,355.10
2011,06,30,14,07,316.50
2011,06,30,14,08,278.20
2011,06,30,14,09,248.10
2011,06,30,14,10,230.50
2011,06,30,14,11,225.00
2011,06,30,14,12,230.70
2011,06,30,14,13,250.00
2011,06,30,14,14,273.30
2011,06,30,14,15,287.40
2011,06,30,14,16,281.50
2011,06,30,14,17,262.80
2011,06,30,14,18,251.00
2011,06,30,14,19,258.20
2011,06,30,14,20,269.20
2011,06,30,14,21,284.70
2011,06,30,14,22,297.50
2011,06,30,14,23,307.00
2011,06,30,14,24,316.80
2011,06,30,14,25,337.80
2011,06,30,14,26,366.90
2011,06,30,14,27,372.70
2011,06,30,14,28,344.50
2011,06,30,14,29,306.50
2011,06,30,14,30,275.60
2011,06,30,14,31,267.80
2011,06,30,14,32,290.30
2011,06,30,14,33,324.30
2011,06,30,14,34,362.10
2011,06,30,14,35,398.90
2011,06,30,14,36,448.30
2011,06,30,14,37,465.90
2011,06,30,14,38,472.00
2011,06,30,14,39,443.40
2011,06,30,14,40,423.80
2011,06,30,14,41,413.60
2011,06,30,14,42,403.10
2011,06,30,14,43,387.80
2011,06,30,14,44,377.50
2011,06,30,14,45,378.00
2011,06,30,14,46,398.70
2011,06,30,14,47,427.00
2011,06,30,14,48,430.40
2011,06,30,14,49,422.60
2011,06,30,14,50,415.40
2011,06,30,14,51,426.10
2011,06,30,14,52,469.30
2011,06,30,14,53,539.00
2011,06,30,14,54,637.90
2011,06,30,14,55,1169.00
2011,06,30,14,56,856.60
2011,06,30,14,57,450.00
2011,06,30,14,58,464.60
2011,06,30,14,59,454.20
2011,06,30,15,00,532.30
2011,06,30,15,01,536.00
2011,06,30,15,02,600.60
2011,06,30,15,03,644.30
2011,06,30,15,04,612.00
2011,06,30,15,05,860.60
2011,06,30,15,06,871.20
2011,06,30,15,07,666.00
2011,06,30,15,08,666.00
2011,06,30,15,09,666.00
2011,06,30,15,10,562.70
2011,06,30,15,11,461.00
2011,06,30,15,12,476.60
2011,06,30,15,13,507.40
2011,06,30,15,14,513.30
2011,06,30,15,15,493.60
2011,06,30,15,16,474.20
2011,06,30,15,17,455.00
2011,06,30,15,18,440.80
2011,06,30,15,19,460.20
2011,06,30,15,20,500.00
2011,06,30,15,21,510.50
2011,06,30,15,22,516.30
2011,06,30,15,23,520.00
2011,06,30,15,24,533.20
2011,06,30,15,25,578.00
2011,06,30,15,26,578.00
2011,06,30,15,27,578.00
2011,06,30,15,28,578.00
2011,06,30,15,29,385.60
2011,06,30,15,30,404.40
2011,06,30,15,31,482.60
2011,06,30,15,32,426.30
2011,06,30,15,33,395.50
2011,06,30,15,34,412.50
2011,06,30,15,35,440.10
2011,06,30,15,36,451.10
2011,06,30,15,37,410.50
2011,06,30,15,38,376.40
2011,06,30,15,39,350.20
2011,06,30,15,40,366.00
2011,06,30,15,41,380.40
2011,06,30,15,42,446.10
2011,06,30,15,43,455.00
2011,06,30,15,44,444.60
2011,06,30,15,45,416.50
2011,06,30,15,46,400.30
2011,06,30,15,47,396.50
2011,06,30,15,48,371.50
2011,06,30,15,49,352.00
2011,06,30,15,50,343.00
2011,06,30,15,51,323.80
2011,06,30,15,52,306.80
2011,06,30,15,53,295.00
2011,06,30,15,54,291.30
2011,06,30,15,55,281.10
2011,06,30,15,56,281.50
2011,06,30,15,57,286.90
2011,06,30,15,58,307.50
2011,06,30,15,59,345.20
2011,06,30,16,00,381.90
2011,06,30,16,01,415.80
2011,06,30,16,02,458.70
2011,06,30,16,03,469.00
2011,06,30,16,04,521.00
2011,06,30,16,05,526.00
2011,06,30,16,06,526.00
2011,06,30,16,07,434.50
2011,06,30,16,08,337.00
2011,06,30,16,09,343.00
2011,06,30,16,10,367.60
2011,06,30,16,11,410.00
2011,06,30,16,12,417.20
2011,06,30,16,13,433.50
2011,06,30,16,14,424.10
2011,06,30,16,15,432.60
2011,06,30,16,16,473.30
2011,06,30,16,17,506.60
2011,06,30,16,18,599.40
2011,06,30,16,19,559.20
2011,06,30,16,20,524.00
2011,06,30,16,21,524.00
2011,06,30,16,22,524.00
2011,06,30,16,23,539.30
2011,06,30,16,24,575.00
2011,06,30,16,25,685.20
2011,06,30,16,26,770.00
2011,06,30,16,27,605.40
2011,06,30,16,28,531.60
2011,06,30,16,29,314.50
2011,06,30,16,30,291.10
2011,06,30,16,31,300.70
2011,06,30,16,32,322.10
2011,06,30,16,33,330.10
2011,06,30,16,34,346.20
2011,06,30,16,35,376.50
2011,06,30,16,36,391.00
2011,06,30,16,37,364.10
2011,06,30,16,38,342.40
2011,06,30,16,39,345.40
2011,06,30,16,40,380.60
2011,06,30,16,41,432.70
2011,06,30,16,42,467.00
2011,06,30,16,43,466.00
2011,06,30,16,44,490.80
2011,06,30,16,45,520.50
2011,06,30,16,46,555.00
2011,06,30,16,47,529.50
2011,06,30,16,48,475.00
2011,06,30,16,49,475.00
2011,06,30,16,50,459.50
2011,06,30,16,51,525.20
2011,06,30,16,52,589.00
2011,06,30,16,53,530.90
2011,06,30,16,54,433.00
2011,06,30,16,55,446.30
2011,06,30,16,56,462.20
2011,06,30,16,57,435.10
2011,06,30,16,58,445.50
2011,06,30,16,59,500.20
2011,06,30,17,00,513.00
2011,06,30,17,01,513.00
2011,06,30,17,02,494.00
2011,06,30,17,03,438.70
2011,06,30,17,04,363.80
2011,06,30,17,05,347.50
2011,06,30,17,06,359.80
2011,06,30,17,07,357.60